• MPC Preparation (Info)

  • MPEC 2015-V115: 2015 VR65

    The following Minor Planet Electronic Circular may be linked-to from your own Web pages, but must not otherwise be redistributed electronically.

    A form allowing access to any MPEC is at the bottom of this page.


    Read MPEC 2015-V114 Read MPEC 2015-V116


    M.P.E.C. 2015-V115                               Issued 2015 Nov. 10, 14:11 UT
    
         The Minor Planet Electronic Circulars contain information on unusual
             minor planets and routine data on comets.  They are published
        on behalf of Division F of the International Astronomical Union by the
              Minor Planet Center, Smithsonian Astrophysical Observatory,
                              Cambridge, MA 02138, U.S.A.
    
                 Prepared using the Tamkin Foundation Computer Network
    
                                  MPC@CFA.HARVARD.EDU
                URL https://www.minorplanetcenter.net/    ISSN 1523-6714
    
                                       2015 VR65
    
    Observations:
         K15V65R* C2015 11 08.38626 07 22 02.03 +35 39 23.0          18.7 VqEV115703
         K15V65R  C2015 11 08.39082 07 22 02.43 +35 41 18.0          18.9 VqEV115703
         K15V65R  C2015 11 08.39992 07 22 03.32 +35 45 04.6          19.1 VqEV115703
         K15V65R KC2015 11 09.01558107 23 51.289+39 37 54.00         20.0 RqEV115J04
         K15V65R KC2015 11 09.01722007 23 51.493+39 38 29.84         19.4 RqEV115J04
         K15V65R KC2015 11 09.06018 07 23 52.26 +39 53 33.9          20.1 VqEV115958
         K15V65R KC2015 11 09.06836 07 23 53.16 +39 56 27.4          19.3 VqEV115958
         K15V65R KC2015 11 09.07098 07 23 50.64 +39 57 24.9          19.0 RrEV115106
         K15V65R KC2015 11 09.07521 07 23 50.96 +39 58 53.4          19.0 RrEV115106
         K15V65R KC2015 11 09.07655 07 23 53.95 +39 59 20.6          19.2 VqEV115958
         K15V65R KC2015 11 09.07944 07 23 51.35 +40 00 23.6          18.7 RrEV115106
         K15V65R  C2015 11 09.37566 07 24 41.74 +41 39 46.6          20.2 RuEV115926
         K15V65R  C2015 11 09.37961 07 24 42.03 +41 41 02.3          19.3 RuEV115926
         K15V65R  C2015 11 09.38356 07 24 42.38 +41 42 20.2          19.4 RuEV115926
         K15V65R KC2015 11 09.38752 07 24 39.02 +41 43 27.9          19.0 RqEV115H36
         K15V65R KC2015 11 09.39236 07 24 39.39 +41 45 01.6          19.2 RqEV115H36
         K15V65R KC2015 11 09.39703 07 24 39.75 +41 46 33.0          19.4 RqEV115H36
         K15V65R KC2015 11 09.42375 07 24 40.07 +41 54 55.9          19.6  tEV115754
         K15V65R KC2015 11 09.42614 07 24 40.25 +41 55 41.3          19.6  tEV115754
         K15V65R KC2015 11 09.42813 07 24 40.39 +41 56 19.2          19.4  tEV115754
         K15V65R KC2015 11 09.44423307 24 41.41 +42 01 34.1          19.3 VuEV115H21
         K15V65R KC2015 11 09.44645707 24 41.56 +42 02 16.1          19.2 VuEV115H21
         K15V65R KC2015 11 09.44861007 24 41.70 +42 02 56.9          19.6 VuEV115H21
         K15V65R KC2015 11 09.45076307 24 41.86 +42 03 37.6          19.4 VuEV115H21
         K15V65R KC2015 11 09.45291507 24 42.03 +42 04 18.0          19.4 VuEV115H21
         K15V65R KC2015 11 09.45570707 24 42.21 +42 05 10.4          19.7 VuEV115H21
         K15V65R  C2015 11 09.48752 07 24 49.44 +42 15 35.4          19.3 VqEV115G96
         K15V65R  C2015 11 09.49209 07 24 49.74 +42 17 01.0          19.3 VqEV115G96
         K15V65R  C2015 11 09.49664 07 24 50.02 +42 18 26.3          19.2 VqEV115G96
         K15V65R  C2015 11 09.49824 07 24 50.10 +42 18 59.0          19.2 RuEV115926
         K15V65R  C2015 11 09.50120 07 24 50.31 +42 19 51.5          19.3 VqEV115G96
         K15V65R  C2015 11 09.50220 07 24 50.34 +42 20 12.6          19.5 RuEV115926
         K15V65R  C2015 11 09.50615 07 24 50.62 +42 21 26.6          19.3 RuEV115926
         K15V65R  C2015 11 09.52098 07 24 51.55 +42 26 01.5          19.6 RuEV115926
         K15V65R  C2015 11 09.52493 07 24 51.78 +42 27 14.5          19.7 RuEV115926
         K15V65R  C2015 11 09.52888 07 24 52.05 +42 28 27.3          19.8 RuEV115926
         K15V65R KC2015 11 10.29428 07 26 54.15 +46 04 38.2          19.3 RqEV115H36
         K15V65R KC2015 11 10.30204 07 26 54.81 +46 06 42.3          19.6 RqEV115H36
         K15V65R  C2015 11 10.47115 07 27 08.79 +46 50 26.6          19.8 VqEV115G96
         K15V65R  C2015 11 10.47781 07 27 09.10 +46 52 05.7          19.5 VqEV115G96
         K15V65R  C2015 11 10.48465 07 27 09.44 +46 53 47.3          19.4 VqEV115G96
         K15V65R  C2015 11 10.49168 07 27 09.77 +46 55 31.8          19.6 VqEV115G96
    
    Observer details:
    106 Crni Vrh.  Observer B. Mikuz.  0.6-m f/3.3 Deltagraph + CCD.
    703 Catalina Sky Survey.  Observer R. G. Matheny.  Measurers E. J. Christensen,
        D. C. Fuls, A. R. Gibbs, A. D. Grauer, R. E. Hill, J. A. Johnson,
        R. A. Kowalski, S. M. Larson, R. G. Matheny, F. C. Shelly.  0.68-m Schmidt
        + CCD.
    754 Yerkes Observatory, Williams Bay.  Observer V. L. Hoette.  Measurers
        V. L. Hoette, A. W. Puckett, T. R. Linder.  1.02-m f/8.04 Cassegrain
        reflector + CCD.
    926 Tenagra II Observatory.  Observers M. Schwartz, P. R. Holvorcem.  Measurer
        M. Schwartz.  0.41-m f/3.75 astrograph + CCD.
    958 Observatoire de Dax.  Observers P. Dupouy, J. B. de Vanssay.  Measurer
        P. Dupouy.  0.43-m f/2.7 reflector + CCD.
    G96 Mt. Lemmon Survey.  Observer D. C. Fuls.  Measurers E. J. Christensen,
        D. C. Fuls, A. R. Gibbs, A. D. Grauer, R. E. Hill, J. A. Johnson,
        R. A. Kowalski, S. M. Larson, R. G. Matheny, F. C. Shelly.  1.5-m
        reflector + CCD.
    H21 Astronomical Research Observatory, Westfield.  Observer R. Holmes.
        Measurers S. Foglia, L. Buzzi, T. Linder, R. Holmes.  0.61-m f/4.5
        astrograph + CCD.
    H36 Sandlot Observatory, Scranton.  Observer G. Hug.  0.56-m reflector + CCD.
    J04 ESA Optical Ground Station, Tenerife.  Observer D. Abreu.  Measurers
        M. Micheli, D. Koschny, A. Knoefel, E. Schwab, M. Busch.  1.0-m f/4.4
        reflector + CCD.
    
    Orbital elements:
    2015 VR65                                                Earth MOID = 0.0144 AU
    Epoch 2016 Jan. 13.0 TT = JDT 2457400.5                 MPC
    M  19.20839              (2000.0)            P               Q
    n   0.23797954     Peri.  343.02616     +0.86896600     -0.45080412
    a   2.5789503      Node    45.61256     +0.48071517     +0.67097884
    e   0.6159556      Incl.   16.59842     +0.11752031     +0.58869605
    P   4.14           H   23.9           G   0.15           U   6
    Residuals in seconds of arc
    151108 703  0.4+  0.7-    151109 H36  0.0   0.1+    151109 G96  0.2+  0.2+
    151108 703  0.0   0.4+    151109 H36  0.1+  0.2-    151109 926  0.2-  0.1-
    151108 703  0.4+  0.2+    151109 H36  0.2+  0.6+    151109 G96  0.2+  0.2+
    151109 J04  0.0   0.2+    151109 754  0.1-  0.3+    151109 926  0.2-  0.4-
    151109 J04  0.1-  0.4+    151109 754  0.1-  0.1+    151109 926  0.1+  0.0
    151109 958  1.5-  1.0+    151109 754  0.2-  0.1+    151109 926  0.1+  0.2-
    151109 958  0.6-  1.1+    151109 H21  0.1+  0.2-    151109 926  0.2-  0.1-
    151109 106  0.5+  1.7-    151109 H21  0.0   0.2-    151109 926  0.0   0.2-
    151109 106  0.2-  2.0-    151109 H21  0.2-  0.0     151110 H36  0.1+  0.5-
    151109 958  0.8-  1.1+    151109 H21  0.2-  0.1+    151110 H36  0.0   0.4-
    151109 106  0.1-  0.5-    151109 H21  0.0   0.1-    151110 G96  0.0   0.6+
    151109 926  0.1-  1.8+    151109 H21  0.3-  0.2-    151110 G96  0.1-  0.2+
    151109 926  0.5-  0.3-    151109 G96  0.1+  0.1+    151110 G96  0.1+  0.1-
    151109 926  0.1-  0.1-    151109 G96  0.2+  0.0     151110 G96  0.0   0.1+
    
    Ephemeris:
    2015 VR65                a,e,i = 2.58, 0.62, 17                  q = 0.9904
    Date    TT    R. A. (2000) Decl.     Delta      r     Elong.  Phase     V
    2015 10 11    23 44 31.9 -85 21 05   0.1747  1.0066    87.6    82.4    23.0
    ...
    2015 10 26    05 54 05.0 -76 26 25   0.07335 0.9907    85.1    90.7    21.4
    ...
    2015 11 03    07 00 53.6 -27 10 32   0.03074 0.9991   102.2    76.1    19.0
    ...
    2015 11 09    07 23 34.6 +39 32 48   0.04586 1.0130   117.9    59.9    19.4
    2015 11 10    07 26 03.8 +44 45 51   0.05170 1.0159   118.1    59.3    19.6
    2015 11 11    07 28 14.9 +48 53 34   0.05787 1.0189   118.3    58.9    19.9
    ...
    2015 11 17    07 35 52.9 +61 57 12   0.09821 1.0407   119.4    55.8    21.0
    ...
    2015 11 25    07 34 20.2 +68 09 00   0.1547  1.0778   122.3    50.8    21.9
    ...
    2015 12 10    07 07 11.2 +71 07 05   0.2632  1.1675   128.6    41.2    23.0
    
    A. U. Tomatic                (C) Copyright 2015 MPC           M.P.E.C. 2015-V115
    

    Read MPEC 2015-V114 Read MPEC 2015-V116


    MPEC number:

    Enter an MPEC number in one of the following forms:

    • 1997-B01 (the full form)
    • J97B01 (the packed version of the full form)
    • B01 (the abbreviated form)